Lyndonville, VT

10:04 AM EDT on October 21, 2017 (GMT -0400)
Lyndonville

Weather History for KCDA - February, 2012

Change the Weather History Date:

Tuesday, February 7, 2012

  Actual Average (K1V4) Record (K1V4)
Temperature  
Mean Temperature 24 °F -  
Max Temperature 36 °F 27 °F 51 °F (2005)
Min Temperature 13 °F 5 °F -31 °F (1993)
Degree Days  
Heating Degree Days 40    
Moisture  
Dew Point 16 °F    
Average Humidity 64    
Maximum Humidity 79    
Minimum Humidity 52    
Precipitation  
Precipitation 0.00 in - - ()
Sea Level Pressure  
Sea Level Pressure 30.01 in    
Wind  
Wind Speed 8 mph (WNW)    
Max Wind Speed 13 mph    
Max Gust Speed 18 mph    
Visibility 10 miles    
Events Rain , Snow    
Averages and records for this station are not official NWS values.
T = Trace of Precipitation, MM = Missing Value Source: NWS Daily Summary

Daily Weather History Graph

Daily Weather History Graph

Search for Another Location

Airport or City:

Trip Planner

Search our weather history database for the weather conditions in past years. The results will help you decide how hot, cold, wet, or windy it might be!

Date:

Astronomy

Feb. 07, 2012 Rise Set
Actual Time 7:00 AM EST 5:04 PM EST
Civil Twilight 6:29 AM EST 5:35 PM EST
Nautical Twilight 5:55 AM EST 6:09 PM EST
Astronomical Twilight 5:21 AM EST 6:43 PM EST
Moon 5:14 PM EST (2/7) 6:26 AM EST (2/7)
Length of Visible Light 11h 05m
Length of Day
10h 04m
Full, 100% of the Moon is Illuminated
Feb 7
Full
Feb 7
Full
Feb 14
Last Quarter
Feb 21
New
Feb 29
First Quarter

Hourly Weather History & Observations

Time (EST) Temp. Windchill Dew Point Humidity Pressure Visibility Wind Dir Wind Speed Gust Speed Precip Events Conditions
12:15 AM 36.5 °F 31.8 °F 25.0 °F 63% 29.83 in 10.0 mi SSW 5.8 mph - N/A   Overcast
12:35 AM 36.1 °F 29.9 °F 25.2 °F 64% 29.84 in 10.0 mi SW 8.1 mph - N/A   Overcast
12:55 AM 36.0 °F 30.3 °F 25.3 °F 65% 29.83 in 10.0 mi SW 6.9 mph - N/A   Overcast
1:15 AM 36.0 °F 29.6 °F 25.3 °F 65% 29.84 in 10.0 mi WSW 8.1 mph - N/A   Overcast
1:35 AM 35.6 °F 29.2 °F 25.5 °F 67% 29.84 in 10.0 mi West 8.1 mph - N/A   Overcast
1:55 AM 35.6 °F 30.7 °F 25.7 °F 67% 29.84 in 10.0 mi West 5.8 mph - N/A   Overcast
2:15 AM 35.2 °F 31.2 °F 25.5 °F 68% 29.85 in 10.0 mi West 4.6 mph - N/A   Overcast
2:35 AM 35.1 °F 31.0 °F 25.7 °F 69% 29.85 in 10.0 mi WNW 4.6 mph - N/A   Overcast
2:55 AM 34.7 °F 26.9 °F 24.6 °F 67% 29.85 in 10.0 mi WNW 10.4 mph 16.1 mph N/A   Overcast
3:15 AM 34.2 °F 25.7 °F 23.2 °F 64% 29.86 in 10.0 mi WNW 11.5 mph 19.6 mph N/A   Overcast
3:35 AM 33.8 °F 26.4 °F 23.0 °F 65% 29.86 in 10.0 mi West 9.2 mph 16.1 mph N/A   Overcast
3:55 AM 33.6 °F 25.6 °F 23.4 °F 66% 29.86 in 10.0 mi West 10.4 mph 16.1 mph N/A   Overcast
4:15 AM 33.4 °F 25.4 °F 23.4 °F 67% 29.87 in 10.0 mi West 10.4 mph 18.4 mph N/A   Overcast
4:35 AM 33.3 °F 27.9 °F 23.4 °F 67% 29.88 in 10.0 mi West 5.8 mph - N/A   Overcast
4:55 AM 33.1 °F 26.9 °F 23.9 °F 69% 29.89 in 10.0 mi WNW 6.9 mph - N/A Rain Light Rain
5:15 AM 32.5 °F 24.2 °F 24.6 °F 73% 29.89 in 7.0 mi NW 10.4 mph 17.3 mph N/A Rain Light Rain
5:35 AM 32.0 °F 23.6 °F 24.6 °F 74% 29.90 in 10.0 mi WNW 10.4 mph - N/A   Overcast
5:55 AM 32.0 °F 27.5 °F 24.1 °F 73% 29.91 in 10.0 mi West 4.6 mph - N/A   Overcast
6:15 AM 32.0 °F 26.4 °F 23.4 °F 70% 29.91 in 10.0 mi West 5.8 mph - N/A   Overcast
6:35 AM 32.0 °F 25.6 °F 23.5 °F 71% 29.91 in 10.0 mi West 6.9 mph - N/A   Overcast
6:55 AM 31.8 °F 24.6 °F 23.7 °F 72% 29.92 in 10.0 mi NW 8.1 mph - N/A   Overcast
7:15 AM 30.2 °F 22.6 °F 23.9 °F 77% 29.93 in 10.0 mi North 8.1 mph - N/A   Overcast
7:35 AM 29.5 °F 21.1 °F 23.5 °F 79% 29.94 in 7.0 mi NNW 9.2 mph - N/A Snow Light Snow
7:55 AM 29.3 °F 23.2 °F 22.8 °F 77% 29.95 in 10.0 mi NNW 5.8 mph - N/A   Overcast
8:15 AM 28.9 °F 19.8 °F 21.6 °F 74% 29.96 in 10.0 mi NNW 10.4 mph - N/A   Overcast
8:35 AM 28.4 °F 18.5 °F 21.7 °F 76% 29.98 in 7.0 mi North 11.5 mph - N/A   Overcast
8:55 AM 27.1 °F 18.9 °F 20.5 °F 76% 29.99 in 3.0 mi NNW 8.1 mph - N/A Snow Light Snow
9:15 AM 27.0 °F 19.5 °F 19.2 °F 73% 30.00 in 4.0 mi NNW 6.9 mph - N/A Snow Light Snow
9:35 AM 27.1 °F 18.2 °F 18.7 °F 70% 30.01 in 10.0 mi NNW 9.2 mph - N/A   Overcast
9:55 AM 26.6 °F 18.2 °F 17.6 °F 69% 30.01 in 5.0 mi NW 8.1 mph - N/A Snow Light Snow
10:15 AM 26.2 °F 17.1 °F 17.2 °F 69% 30.02 in 7.0 mi NNW 9.2 mph - N/A   Overcast
10:35 AM 27.3 °F 19.9 °F 15.6 °F 61% 30.02 in 10.0 mi NW 6.9 mph - N/A   Overcast
10:55 AM 26.4 °F 15.5 °F 15.6 °F 64% 30.02 in 10.0 mi NNW 12.7 mph - N/A   Overcast
11:15 AM 26.1 °F 16.8 °F 15.1 °F 63% 30.02 in 10.0 mi NNW 9.2 mph - N/A   Mostly Cloudy
11:35 AM 26.1 °F 19.4 °F 14.2 °F 61% 30.02 in 10.0 mi NNW 5.8 mph - N/A   Scattered Clouds
11:55 AM 26.6 °F 18.2 °F 13.6 °F 58% 30.02 in 10.0 mi NW 8.1 mph 17.3 mph N/A   Scattered Clouds
12:15 PM 27.3 °F 17.1 °F 14.0 °F 57% 30.03 in 10.0 mi NNW 11.5 mph - N/A   Overcast
12:35 PM 27.1 °F 16.9 °F 13.1 °F 56% 30.03 in 10.0 mi WNW 11.5 mph 18.4 mph N/A   Overcast
12:55 PM 27.3 °F 17.1 °F 12.4 °F 53% 30.03 in 10.0 mi WNW 11.5 mph - N/A   Mostly Cloudy
1:15 PM 26.8 °F 17.1 °F 11.8 °F 53% 30.03 in 10.0 mi WNW 10.4 mph - N/A   Scattered Clouds
1:35 PM 26.4 °F 16.0 °F 11.7 °F 54% 30.03 in 10.0 mi NW 11.5 mph 18.4 mph N/A   Clear
1:55 PM 26.1 °F 17.6 °F 10.8 °F 52% 30.04 in 10.0 mi NW 8.1 mph 17.3 mph N/A   Clear
2:15 PM 25.5 °F 16.9 °F 10.9 °F 54% 30.05 in 10.0 mi WNW 8.1 mph - N/A   Clear
2:35 PM 25.0 °F 15.5 °F 10.8 °F 55% 30.05 in 10.0 mi WNW 9.2 mph - N/A   Clear
2:55 PM 25.0 °F 14.8 °F 10.4 °F 54% 30.06 in 10.0 mi WNW 10.4 mph - N/A   Clear
3:15 PM 25.2 °F 13.9 °F 10.0 °F 53% 30.07 in 10.0 mi NW 12.7 mph - N/A   Scattered Clouds
3:35 PM 24.6 °F 14.4 °F 9.7 °F 53% 30.08 in 10.0 mi NW 10.4 mph 16.1 mph N/A   Scattered Clouds
3:55 PM 23.0 °F 13.9 °F 8.6 °F 54% 30.09 in 10.0 mi NW 8.1 mph - N/A   Clear
4:15 PM 22.3 °F 12.2 °F 7.7 °F 54% 30.09 in 10.0 mi NNW 9.2 mph - N/A   Clear
4:35 PM 21.4 °F 11.9 °F 7.7 °F 56% 30.10 in 10.0 mi NNW 8.1 mph - N/A   Clear
4:55 PM 20.3 °F 9.8 °F 6.6 °F 56% 30.11 in 10.0 mi NNW 9.2 mph - N/A   Scattered Clouds
5:15 PM 19.4 °F 8.6 °F 6.8 °F 58% 30.12 in 10.0 mi NNW 9.2 mph - N/A   Scattered Clouds
5:35 PM 18.7 °F 8.6 °F 6.8 °F 60% 30.13 in 10.0 mi NW 8.1 mph - N/A   Clear
5:55 PM 18.1 °F 7.9 °F 6.8 °F 61% 30.15 in 10.0 mi NNW 8.1 mph - N/A   Clear
6:15 PM 17.6 °F 7.3 °F 6.6 °F 62% 30.15 in 10.0 mi SW 8.1 mph - N/A   Clear
6:35 PM 17.8 °F 8.5 °F 6.8 °F 62% 30.17 in 10.0 mi SW 6.9 mph - N/A   Clear
6:55 PM 16.7 °F 11.2 °F 6.8 °F 65% 30.17 in 10.0 mi SW 3.5 mph - N/A   Clear
7:15 PM 16.5 °F - 6.4 °F 65% 30.17 in 10.0 mi Calm Calm - N/A   Clear
7:35 PM 16.0 °F - 6.4 °F 66% 30.18 in 10.0 mi Calm Calm - N/A   Clear
7:55 PM 15.6 °F 10.0 °F 5.9 °F 66% 30.18 in 10.0 mi SW 3.5 mph - N/A   Clear
8:15 PM 15.1 °F 7.7 °F 5.4 °F 65% 30.19 in 10.0 mi SW 4.6 mph - N/A   Clear
8:35 PM 14.7 °F 7.3 °F 4.1 °F 63% 30.20 in 10.0 mi SW 4.6 mph - N/A   Clear
8:55 PM 14.4 °F 6.9 °F 3.6 °F 62% 30.20 in 10.0 mi WSW 4.6 mph - N/A   Clear
9:15 PM 13.6 °F - 2.7 °F 62% 30.20 in 10.0 mi Calm Calm - N/A   Clear
9:35 PM 13.5 °F - 2.8 °F 63% 30.20 in 10.0 mi Calm Calm - N/A   Clear
9:55 PM 12.7 °F 6.7 °F 2.8 °F 65% 30.21 in 10.0 mi SW 3.5 mph - N/A   Clear
10:15 PM 14.4 °F 8.6 °F 1.9 °F 58% 30.21 in 10.0 mi WSW 3.5 mph - N/A   Clear
10:35 PM 13.3 °F - 2.3 °F 62% 30.21 in 10.0 mi Calm Calm - N/A   Clear
10:55 PM 13.6 °F 7.7 °F 1.2 °F 58% 30.21 in 10.0 mi West 3.5 mph - N/A   Clear
11:15 PM 13.1 °F 2.8 °F -0.6 °F 54% 30.22 in 10.0 mi SW 6.9 mph - N/A   Clear
11:35 PM 11.7 °F 2.3 °F -1.5 °F 56% 30.22 in 10.0 mi SW 5.8 mph - N/A   Clear
11:55 PM 11.8 °F 0.3 °F -1.5 °F 55% 30.21 in 10.0 mi SW 8.1 mph - N/A   Clear